Starlink 30932

operational
NORAD ID: 58523 Int'l Des: 2023-191 Owner: SPXS Country: US Constellation: starlink
LEOCIRCULAR

About Starlink 30932

Description loading...

Live Position

Loading 3D Globe...

Upcoming Passes

Altitude History

Altitude vs Time

uPlot chart will show altitude changes over time

Two-Line Element Set

1 58523U 23191R 26020.64071414 .00003005 00000-0 23731-3 0 9993
2 58523 43.0049 7.0583 0001048 273.9833 86.0889 15.02554867118165
Epoch: Jan 20, 2026 • Age: 16 hours

Current Status

Altitude 559.5 km
Velocity 7.59 km/s
Sub-Earth Point 26.51°N, 162.18°E
Launch Date Dec 7, 2023
Age 2.1 years
Type internet

Technical Details

Classification Payload
Mass 730.00 kg
Dry Mass 700.00 kg
Total Mass 730.00 kg
Length 0.30 m
Diameter 4.10 m
Span 29.00 m
Shape Box + pan
Manufacturer SPXS
Bus Type Starlink V2M
Phase Status In Orbit
Owner/State SPXS/US

Large Constellations

Loading constellations...